STARLINK-33531, 63399

Orbit data source: Space-Track

STARLINK-33531, 63399 is a payload satellite owned by SpaceX/Seattle (US) in LEO that was launched on Mon, 31 Mar 2025 UTC via an FALCON 9 launch vehicle from the Air Force Eastern Test Range (AFETR). Payload-class satellites include a variety of spacecraft equipped with specific instruments for various scientific and technological missions. These include communications satellites like Starlink; space stations such as the ISS; scientific satellites like the Hubble; Earth observation satellites from companies like Planet Labs, Umbra, and HawkEye 360; GPS; miniature CubeSats for education and research; and military/defense satellites.

Loading next visibility...
Identifier
63399, 2025-065A
Orbit
LEO
Country
Flag of USUS
Related business
Manufacturer
SpaceX/Seattle
Mission
Operational Commercial Communications
Bus & Motor
STARLINK V2MO, Unknown motor
Mass
575 kg wet, ~530 kg dry
Launch date (UTC)
2025-03-31 (1 year ago)
Launch vehicle
FALCON 9
Launch site
Air Force Eastern Test Range (AFETR)
Object type
Payload
Rocket body
Debris
Shape & HBR
Box + 2 Pan, 17.7 m
Radar Cross Section
36.964 m², Large (>1 m²)

Expand to show TLE details & history
Last TLE update: 1 day ago

TLE from 1 day ago
0 STARLINK-33531
1 63399U 25065A   26170.51446136  .00011765  00000-0  43625-3 0  9997
2 63399  43.0004 251.9537 0001375 271.4499  88.6195 15.27589667 68419
Epoch: 2026-06-19T12:20Z
TLE epoch observation values (Epoch: 2026-06-19T12:20:49.461Z)
Latitude
-0.00003°
Longitude
159.00524°
Altitude
482.773 km
Speed
7.626 km/s
True Right ascension
16h 47m 48s
True Declination
0° 00' 00"
Sunlit
Object was in full shadow at epoch
Visualization orbit readout
Latitude
Unknown
Longitude
Unknown
Altitude
Unknown
Speed
Unknown
Apparent Right ascension
Unknown
Apparent Declination
Unknown
Sunlit
N/A
Visualization observer readout
Local Sidereal Time
07:23:36
Azimuth
Unknown
Elevation
Unknown
Doppler factor
Unknown
Orbital elements
Apogee altitude
485.909 km
Perigee altitude
484.022 km
Semi-major axis
6,863.102 km
Eccentricity
0.00014
Inclination
43.0004°
RAAN
251.9537°
Arg. of periapsis
271.4499°
True anomaly
88.63525°
Mean anomaly
88.6195°
Eccentric anomaly
88.62738°
Mean motion
3.81735 °/min
Orbital period
94.31 mins
BSTAR
0.00043625
Loading maneuver chart data...
Computing Atmospheric mass density...
Loading historical data...
Loading historical data...
Loading historical data...
Loading historical data...
Loading historical data...
Loading historical data...
Loading historical data...

Documentation

Showing up to 5 results
|